Juneau, AK

11:37 AM AKDT on July 22, 2017 (GMT -0800)
Juneau International

Weather History for PAJN - December, 2013

Change the Weather History Date:

Monday, December 2, 2013

  Actual Average Record
Temperature  
Mean Temperature 22 °F 31 °F  
Max Temperature 29 °F 35 °F 49 °F (1963)
Min Temperature 15 °F 27 °F -6 °F (1970)
Degree Days  
Heating Degree Days 43 34  
Month to date heating degree days 89 68  
Since 1 July heating degree days 2562 2699  
Moisture  
Dew Point 11 °F    
Average Humidity 63    
Maximum Humidity 80    
Minimum Humidity 45    
Precipitation  
Precipitation 0.00 in 0.21 in 2.09 in (1997)
Month to date precipitation 0.00 0.41  
Year to date precipitation 65.22 56.84  
Snow  
Snow 0.00 in 0.50 in 9.30 in (2006)
Month to date snowfall 0.0 1.0  
Since 1 July snowfall 19.2 14.9  
Snow Depth 3.00 in    
Sea Level Pressure  
Sea Level Pressure 30.62 in    
Wind  
Wind Speed 6 mph (SSE)    
Max Wind Speed 21 mph    
Max Gust Speed 27 mph    
Visibility 10 miles    
Events      
T = Trace of Precipitation, MM = Missing Value Source: NWS Daily Summary

Daily Weather History Graph

Daily Weather History Graph

Search for Another Location

Airport or City:

Trip Planner

Search our weather history database for the weather conditions in past years. The results will help you decide how hot, cold, wet, or windy it might be!

Date:

Astronomy

Dec. 02, 2013 Rise Set
Actual Time 8:23 AM AKST 3:12 PM AKST
Civil Twilight 7:32 AM AKST 4:02 PM AKST
Nautical Twilight 6:40 AM AKST 4:54 PM AKST
Astronomical Twilight 5:52 AM AKST 5:42 PM AKST
Moon 7:47 AM AKST (12/2) 3:30 PM AKST (12/2)
Length of Visible Light 8h 29m
Length of Day
6h 49m
Waning Crescent, 0% of the Moon is Illuminated
Dec 2
Waning Crescent
Dec 2
New
Dec 9
First Quarter
Dec 17
Full
Dec 25
Last Quarter

Hourly Weather History & Observations

Time (AKST) Temp. Windchill Dew Point Humidity Pressure Visibility Wind Dir Wind Speed Gust Speed Precip Events Conditions
12:53 AM 21.9 °F 10.4 °F 6.1 °F 51% 30.47 in 10.0 mi SE 11.5 mph 21.9 mph N/A   Scattered Clouds
1:53 AM 23.0 °F 9.2 °F 7.0 °F 50% 30.48 in 10.0 mi SE 17.3 mph 23.0 mph N/A   Partly Cloudy
3:53 AM 21.9 °F 11.0 °F 3.9 °F 46% 30.51 in 10.0 mi SE 10.4 mph - N/A   Clear
4:53 AM 17.1 °F - 10.9 °F 77% 30.53 in 10.0 mi Calm Calm - N/A   Clear
5:53 AM 16.0 °F 8.8 °F 10.0 °F 77% 30.56 in 10.0 mi NW 4.6 mph - N/A   Clear
6:53 AM 19.0 °F - 10.0 °F 68% 30.58 in 10.0 mi Calm Calm - N/A   Clear
7:53 AM 17.1 °F - 10.0 °F 74% 30.61 in 10.0 mi Calm Calm - N/A   Clear
8:53 AM 21.0 °F 14.6 °F 10.0 °F 63% 30.62 in 10.0 mi NE 4.6 mph - N/A   Clear
9:53 AM 21.9 °F - 8.1 °F 55% 30.64 in 10.0 mi Calm Calm - N/A   Clear
10:53 AM 25.0 °F 16.3 °F 10.0 °F 53% 30.65 in 10.0 mi SSE 8.1 mph - N/A   Clear
11:53 AM 28.0 °F - 10.0 °F 47% 30.65 in 10.0 mi Calm Calm - N/A   Clear
12:53 PM 24.1 °F 17.0 °F 15.1 °F 69% 30.65 in 10.0 mi West 5.8 mph - N/A   Clear
1:53 PM 25.0 °F 16.3 °F 15.1 °F 66% 30.64 in 10.0 mi SW 8.1 mph - N/A   Clear
2:53 PM 26.1 °F 20.5 °F 14.0 °F 60% 30.66 in 10.0 mi NE 4.6 mph - N/A   Partly Cloudy
3:53 PM 21.0 °F - 15.1 °F 78% 30.66 in 10.0 mi Calm Calm - N/A   Clear
4:53 PM 18.0 °F 12.7 °F 15.1 °F 88% 30.66 in 10.0 mi NW 3.5 mph - N/A   Clear
5:53 PM 16.0 °F 8.8 °F 12.9 °F 88% 30.67 in 10.0 mi SE 4.6 mph - N/A   Clear
6:53 PM 15.1 °F 9.4 °F 12.0 °F 88% 30.67 in 10.0 mi West 3.5 mph - N/A   Clear
7:53 PM 16.0 °F - 12.0 °F 84% 30.68 in 10.0 mi Calm Calm - N/A   Clear
8:53 PM 15.1 °F 9.4 °F 12.9 °F 91% 30.69 in 10.0 mi ESE 3.5 mph - N/A   Clear
9:53 PM 14.0 °F - 12.9 °F 95% 30.69 in 10.0 mi Calm Calm - N/A   Clear
10:53 PM 14.0 °F - 12.0 °F 92% 30.69 in 10.0 mi Calm Calm - N/A   Clear
11:53 PM 14.0 °F - 12.0 °F 92% 30.68 in 10.0 mi Calm Calm - N/A   Clear